Time,TemperatureF,DewpointF,PressureIn,WindDirection,WindDirectionDegrees,WindSpeedMPH,WindSpeedGustMPH,Humidity,HourlyPrecipIn,Conditions,Clouds,dailyrainin,SoftwareType,DateUTC
2013-07-21 00:01:00,66.0,56.0,29.97,NNE,17,5.0,0.0,69,0.03,,,-99.99,,2013-07-21 04:01:00,
2013-07-21 00:11:00,66.0,56.0,29.97,NNE,17,5.0,0.0,69,0.03,,,-99.99,,2013-07-21 04:11:00,
2013-07-21 00:22:00,65.0,56.0,29.98,NNE,24,5.0,0.0,72,0.03,,,-99.99,,2013-07-21 04:22:00,
2013-07-21 00:32:00,65.0,56.0,29.98,NNE,24,5.0,0.0,72,0.03,,,-99.99,,2013-07-21 04:32:00,
2013-07-21 00:43:00,64.0,56.0,29.98,NE,42,4.0,0.0,76,0.03,,,-99.99,,2013-07-21 04:43:00,
2013-07-21 00:53:00,64.0,56.0,29.98,NE,42,4.0,0.0,76,0.03,,,-99.99,,2013-07-21 04:53:00,
2013-07-21 01:02:00,63.0,55.0,29.98,North,8,7.0,0.0,75,0.03,,,-99.99,,2013-07-21 05:02:00,
2013-07-21 01:11:00,63.0,55.0,29.98,North,8,7.0,0.0,75,0.03,,,-99.99,,2013-07-21 05:11:00,
2013-07-21 01:22:00,63.0,54.0,29.98,NNE,24,7.0,0.0,73,0.03,,,-99.99,,2013-07-21 05:22:00,
2013-07-21 01:32:00,63.0,54.0,29.98,NNE,27,6.0,0.0,73,0.03,,,-99.99,,2013-07-21 05:32:00,
2013-07-21 01:42:00,62.0,54.0,29.98,NE,42,7.0,0.0,74,0.03,,,-99.99,,2013-07-21 05:42:00,
2013-07-21 01:52:00,62.0,54.0,29.98,NE,42,7.0,0.0,74,0.03,,,-99.99,,2013-07-21 05:52:00,
2013-07-21 02:01:00,62.0,54.0,29.98,NE,56,7.0,0.0,75,0.03,,,-99.99,,2013-07-21 06:01:00,
2013-07-21 02:11:00,62.0,54.0,29.99,NE,55,6.0,0.0,75,0.03,,,-99.99,,2013-07-21 06:11:00,
2013-07-21 02:22:00,61.0,53.0,29.99,ENE,60,5.0,0.0,75,0.03,,,-99.99,,2013-07-21 06:22:00,
2013-07-21 02:32:00,61.0,53.0,29.99,NNE,30,5.0,0.0,76,0.03,,,-99.99,,2013-07-21 06:32:00,
2013-07-21 02:52:00,60.0,53.0,29.99,NE,49,4.0,0.0,78,0.03,,,-99.99,,2013-07-21 06:52:00,
2013-07-21 03:01:00,60.0,53.0,29.99,NE,49,4.0,0.0,78,0.03,,,-99.99,,2013-07-21 07:01:00,
2013-07-21 03:11:00,60.0,53.0,30.00,NE,42,5.0,0.0,79,0.03,,,-99.99,,2013-07-21 07:11:00,
2013-07-21 03:22:00,59.0,54.0,29.99,NNE,31,5.0,0.0,82,0.03,,,-99.99,,2013-07-21 07:22:00,
2013-07-21 03:32:00,59.0,54.0,29.99,NNE,31,5.0,0.0,82,0.03,,,-99.99,,2013-07-21 07:32:00,
2013-07-21 03:43:00,60.0,54.0,29.99,NE,49,7.0,0.0,82,0.03,,,-99.99,,2013-07-21 07:43:00,
2013-07-21 03:52:00,60.0,54.0,29.99,NE,49,7.0,0.0,82,0.03,,,-99.99,,2013-07-21 07:52:00,
2013-07-21 04:01:00,60.0,53.0,29.98,NE,52,5.0,0.0,79,0.03,,,-99.99,,2013-07-21 08:01:00,
2013-07-21 04:11:00,60.0,53.0,29.98,NE,52,5.0,0.0,79,0.03,,,-99.99,,2013-07-21 08:11:00,
2013-07-21 04:22:00,60.0,53.0,29.98,NE,52,5.0,0.0,79,0.03,,,-99.99,,2013-07-21 08:22:00,
2013-07-21 04:33:00,60.0,53.0,29.98,NE,52,5.0,0.0,79,0.03,,,-99.99,,2013-07-21 08:33:00,
2013-07-21 04:43:00,60.0,53.0,29.98,NE,52,5.0,0.0,79,0.03,,,-99.99,,2013-07-21 08:43:00,
2013-07-21 05:02:00,60.0,53.0,29.98,NE,48,7.0,0.0,78,0.03,,,-99.99,,2013-07-21 09:02:00,
2013-07-21 05:12:00,60.0,53.0,29.98,NE,48,7.0,0.0,78,0.03,,,-99.99,,2013-07-21 09:12:00,
2013-07-21 05:22:00,60.0,53.0,29.98,NE,48,7.0,0.0,78,0.03,,,-99.99,,2013-07-21 09:22:00,
2013-07-21 05:32:00,60.0,53.0,29.98,NE,48,7.0,0.0,78,0.03,,,-99.99,,2013-07-21 09:32:00,
2013-07-21 05:42:00,59.0,53.0,30.00,NE,55,0.0,0.0,81,0.03,,,-99.99,,2013-07-21 09:42:00,
2013-07-21 05:52:00,59.0,53.0,29.99,NE,55,0.0,0.0,81,0.03,,,-99.99,,2013-07-21 09:52:00,
2013-07-21 06:02:00,59.0,52.0,30.00,ENE,60,5.0,0.0,79,0.03,,,-99.99,,2013-07-21 10:02:00,
2013-07-21 06:11:00,59.0,52.0,30.00,ENE,60,5.0,0.0,79,0.03,,,-99.99,,2013-07-21 10:11:00,
2013-07-21 06:22:00,59.0,52.0,30.00,ENE,60,5.0,0.0,79,0.03,,,-99.99,,2013-07-21 10:22:00,
2013-07-21 06:32:00,59.0,52.0,30.00,ENE,60,5.0,0.0,79,0.03,,,-99.99,,2013-07-21 10:32:00,
2013-07-21 06:43:00,60.0,53.0,30.00,ENE,65,7.0,0.0,77,0.03,,,-99.99,,2013-07-21 10:43:00,
2013-07-21 06:52:00,59.0,52.0,30.01,ENE,62,8.0,0.0,77,0.03,,,-99.99,,2013-07-21 10:52:00,
2013-07-21 07:02:00,59.0,52.0,30.01,ENE,62,8.0,0.0,77,0.03,,,-99.99,,2013-07-21 11:02:00,
2013-07-21 07:12:00,59.0,52.0,30.01,ENE,62,8.0,0.0,77,0.03,,,-99.99,,2013-07-21 11:12:00,
2013-07-21 07:22:00,59.0,52.0,30.01,ENE,62,8.0,0.0,77,0.03,,,-99.99,,2013-07-21 11:22:00,
2013-07-21 07:33:00,59.0,52.0,30.01,ENE,62,8.0,0.0,77,0.03,,,-99.99,,2013-07-21 11:33:00,
2013-07-21 07:43:00,60.0,52.0,30.01,NE,52,6.0,0.0,74,0.03,,,-99.99,,2013-07-21 11:43:00,
2013-07-21 07:52:00,60.0,52.0,30.01,NE,52,6.0,0.0,74,0.03,,,-99.99,,2013-07-21 11:52:00,
2013-07-21 08:01:00,60.0,52.0,30.01,NE,52,6.0,0.0,74,0.03,,,-99.99,,2013-07-21 12:01:00,
2013-07-21 08:11:00,60.0,52.0,30.01,NE,52,6.0,0.0,74,0.03,,,-99.99,,2013-07-21 12:11:00,
2013-07-21 08:22:00,61.0,52.0,30.01,ENE,72,8.0,0.0,73,0.03,,,-99.99,,2013-07-21 12:22:00,
2013-07-21 08:32:00,61.0,52.0,30.01,ENE,72,8.0,0.0,73,0.03,,,-99.99,,2013-07-21 12:32:00,
2013-07-21 08:43:00,62.0,53.0,30.02,ENE,62,6.0,0.0,73,0.03,,,-99.99,,2013-07-21 12:43:00,
2013-07-21 08:53:00,62.0,53.0,30.02,ENE,62,6.0,0.0,73,0.03,,,-99.99,,2013-07-21 12:53:00,
2013-07-21 09:02:00,63.0,54.0,30.02,East,101,6.0,0.0,72,0.03,,,-99.99,,2013-07-21 13:02:00,
2013-07-21 09:12:00,63.0,54.0,30.02,East,101,6.0,0.0,72,0.03,,,-99.99,,2013-07-21 13:12:00,
2013-07-21 09:22:00,63.0,54.0,30.02,East,101,6.0,0.0,72,0.03,,,-99.99,,2013-07-21 13:22:00,
2013-07-21 09:32:00,63.0,54.0,30.02,East,101,6.0,0.0,72,0.03,,,-99.99,,2013-07-21 13:32:00,
2013-07-21 09:43:00,64.0,55.0,30.03,ESE,104,6.0,0.0,72,0.03,,,-99.99,,2013-07-21 13:43:00,
2013-07-21 09:53:00,64.0,55.0,30.03,ESE,104,6.0,0.0,72,0.03,,,-99.99,,2013-07-21 13:53:00,
2013-07-21 10:01:00,64.0,54.0,30.03,ESE,118,7.0,0.0,70,0.03,,,-99.99,,2013-07-21 14:01:00,
2013-07-21 10:12:00,64.0,54.0,30.03,ESE,118,7.0,0.0,70,0.03,,,-99.99,,2013-07-21 14:12:00,
2013-07-21 10:23:00,66.0,56.0,30.03,East,87,4.0,0.0,69,0.03,,,-99.99,,2013-07-21 14:23:00,
2013-07-21 10:32:00,66.0,55.0,30.03,ESE,121,7.0,0.0,68,0.03,,,-99.99,,2013-07-21 14:32:00,
2013-07-21 10:43:00,67.0,56.0,30.03,East,101,7.0,0.0,68,0.03,,,-99.99,,2013-07-21 14:43:00,
2013-07-21 10:53:00,67.0,56.0,30.03,East,101,7.0,0.0,68,0.03,,,-99.99,,2013-07-21 14:53:00,
2013-07-21 11:02:00,68.0,57.0,30.03,ESE,120,6.0,0.0,67,0.03,,,-99.99,,2013-07-21 15:02:00,
2013-07-21 11:11:00,69.0,57.0,30.02,ENE,63,8.0,0.0,66,0.03,,,-99.99,,2013-07-21 15:11:00,
2013-07-21 11:22:00,71.0,58.0,30.02,SE,125,6.0,0.0,63,0.03,,,-99.99,,2013-07-21 15:22:00,
2013-07-21 11:32:00,71.0,58.0,30.02,SE,125,6.0,0.0,63,0.03,,,-99.99,,2013-07-21 15:32:00,
2013-07-21 11:43:00,71.0,59.0,30.02,South,177,6.0,0.0,65,0.03,,,-99.99,,2013-07-21 15:43:00,
2013-07-21 11:53:00,72.0,59.0,30.02,ESE,103,6.0,0.0,63,0.03,,,-99.99,,2013-07-21 15:53:00,
2013-07-21 12:01:00,72.0,59.0,30.02,ESE,103,6.0,0.0,63,0.03,,,-99.99,,2013-07-21 16:01:00,
2013-07-21 12:11:00,72.0,58.0,30.02,East,87,7.0,0.0,61,0.03,,,-99.99,,2013-07-21 16:11:00,
2013-07-21 12:22:00,73.0,58.0,30.02,South,173,6.0,0.0,60,0.03,,,-99.99,,2013-07-21 16:22:00,
2013-07-21 12:32:00,73.0,58.0,30.02,SSE,156,7.0,0.0,60,0.03,,,-99.99,,2013-07-21 16:32:00,
2013-07-21 12:43:00,74.0,55.0,30.01,SE,125,5.0,0.0,52,0.03,,,-99.99,,2013-07-21 16:43:00,
2013-07-21 12:52:00,74.0,55.0,30.01,ENE,66,6.0,0.0,52,0.03,,,-99.99,,2013-07-21 16:52:00,
2013-07-21 13:02:00,75.0,57.0,30.01,SSW,194,5.0,0.0,53,0.03,,,-99.99,,2013-07-21 17:02:00,
2013-07-21 13:11:00,76.0,56.0,30.01,SSE,166,6.0,0.0,50,0.03,,,-99.99,,2013-07-21 17:11:00,
2013-07-21 13:22:00,76.0,58.0,30.01,South,173,6.0,0.0,53,0.03,,,-99.99,,2013-07-21 17:22:00,
2013-07-21 13:33:00,77.0,57.0,30.01,SSW,193,5.0,0.0,50,0.03,,,-99.99,,2013-07-21 17:33:00,
2013-07-21 13:43:00,78.0,57.0,30.01,South,170,6.0,0.0,49,0.03,,,-99.99,,2013-07-21 17:43:00,
2013-07-21 13:53:00,77.0,57.0,30.01,South,173,7.0,0.0,50,0.03,,,-99.99,,2013-07-21 17:53:00,
2013-07-21 14:01:00,77.0,56.0,30.01,SSW,193,10.0,0.0,48,0.03,,,-99.99,,2013-07-21 18:01:00,
2013-07-21 14:11:00,77.0,56.0,30.01,SSE,159,9.0,0.0,48,0.03,,,-99.99,,2013-07-21 18:11:00,
2013-07-21 14:22:00,77.0,56.0,30.00,South,181,9.0,0.0,48,0.03,,,-99.99,,2013-07-21 18:22:00,
2013-07-21 14:32:00,77.0,56.0,30.00,South,181,9.0,0.0,48,0.03,,,-99.99,,2013-07-21 18:32:00,
2013-07-21 14:43:00,80.0,59.0,29.99,East,89,3.0,0.0,48,0.03,,,-99.99,,2013-07-21 18:43:00,
2013-07-21 14:52:00,80.0,57.0,29.99,South,183,8.0,0.0,45,0.03,,,-99.99,,2013-07-21 18:52:00,
2013-07-21 15:01:00,80.0,57.0,29.99,South,176,6.0,0.0,46,0.03,,,-99.99,,2013-07-21 19:01:00,
2013-07-21 15:11:00,80.0,57.0,29.99,South,176,6.0,0.0,46,0.03,,,-99.99,,2013-07-21 19:11:00,
2013-07-21 15:22:00,80.0,59.0,29.98,SE,127,5.0,0.0,48,0.03,,,-99.99,,2013-07-21 19:22:00,
2013-07-21 15:32:00,80.0,59.0,29.98,SE,127,5.0,0.0,48,0.03,,,-99.99,,2013-07-21 19:32:00,
2013-07-21 15:42:00,80.0,59.0,29.97,NNE,20,4.0,0.0,48,0.03,,,-99.99,,2013-07-21 19:42:00,
2013-07-21 15:52:00,80.0,59.0,29.97,South,188,12.0,0.0,48,0.03,,,-99.99,,2013-07-21 19:52:00,
2013-07-21 16:01:00,80.0,57.0,29.96,South,191,10.0,0.0,46,0.03,,,-99.99,,2013-07-21 20:01:00,
2013-07-21 16:12:00,80.0,57.0,29.96,South,191,10.0,0.0,46,0.03,,,-99.99,,2013-07-21 20:12:00,
2013-07-21 16:22:00,80.0,57.0,29.96,South,184,5.0,0.0,46,0.03,,,-99.99,,2013-07-21 20:22:00,
2013-07-21 16:32:00,80.0,57.0,29.96,South,184,5.0,0.0,46,0.03,,,-99.99,,2013-07-21 20:32:00,
2013-07-21 16:43:00,80.0,59.0,29.95,SSW,211,3.0,0.0,48,0.03,,,-99.99,,2013-07-21 20:43:00,
2013-07-21 16:52:00,80.0,59.0,29.95,South,174,7.0,0.0,48,0.03,,,-99.99,,2013-07-21 20:52:00,
2013-07-21 17:01:00,80.0,60.0,29.95,SSW,194,7.0,0.0,50,0.03,,,-99.99,,2013-07-21 21:01:00,
2013-07-21 17:11:00,80.0,60.0,29.95,South,174,7.0,0.0,50,0.03,,,-99.99,,2013-07-21 21:11:00,
2013-07-21 17:22:00,80.0,60.0,29.95,South,174,7.0,0.0,50,0.03,,,-99.99,,2013-07-21 21:22:00,
2013-07-21 17:32:00,81.0,59.0,29.94,South,190,4.0,0.0,47,0.03,,,-99.99,,2013-07-21 21:32:00,
2013-07-21 17:43:00,81.0,60.0,29.94,South,183,9.0,0.0,49,0.03,,,-99.99,,2013-07-21 21:43:00,
2013-07-21 17:52:00,80.0,60.0,29.93,SE,134,3.0,0.0,50,0.03,,,-99.99,,2013-07-21 21:52:00,
2013-07-21 18:01:00,81.0,59.0,29.93,East,94,6.0,0.0,47,0.03,,,-99.99,,2013-07-21 22:01:00,
2013-07-21 18:11:00,81.0,59.0,29.93,East,91,2.0,0.0,48,0.03,,,-99.99,,2013-07-21 22:11:00,
2013-07-21 18:22:00,79.0,60.0,29.93,South,184,6.0,0.0,53,0.03,,,-99.99,,2013-07-21 22:22:00,
2013-07-21 18:32:00,79.0,60.0,29.93,South,184,6.0,0.0,53,0.03,,,-99.99,,2013-07-21 22:32:00,
2013-07-21 18:43:00,79.0,60.0,29.93,NE,34,4.0,0.0,52,0.03,,,-99.99,,2013-07-21 22:43:00,
2013-07-21 18:52:00,79.0,60.0,29.93,South,172,5.0,0.0,53,0.03,,,-99.99,,2013-07-21 22:52:00,
2013-07-21 19:02:00,79.0,60.0,29.93,SSE,166,4.0,0.0,53,0.03,,,-99.99,,2013-07-21 23:02:00,
2013-07-21 19:11:00,79.0,62.0,29.93,ESE,108,4.0,0.0,56,0.03,,,-99.99,,2013-07-21 23:11:00,
2013-07-21 19:22:00,79.0,62.0,29.93,SE,124,0.0,0.0,56,0.03,,,-99.99,,2013-07-21 23:22:00,
2013-07-21 19:32:00,78.0,61.0,29.93,SE,124,0.0,0.0,56,0.03,,,-99.99,,2013-07-21 23:32:00,
2013-07-21 19:42:00,78.0,62.0,29.93,ESE,103,3.0,0.0,57,0.03,,,-99.99,,2013-07-21 23:42:00,
2013-07-21 19:53:00,78.0,62.0,29.93,ESE,103,3.0,0.0,57,0.03,,,-99.99,,2013-07-21 23:53:00,
2013-07-21 20:01:00,78.0,63.0,29.94,East,97,4.0,0.0,60,0.03,,,-99.99,,2013-07-22 00:01:00,
2013-07-21 20:11:00,78.0,63.0,29.94,ESE,108,5.0,0.0,61,0.03,,,-99.99,,2013-07-22 00:11:00,
2013-07-21 20:22:00,78.0,64.0,29.93,East,90,4.0,0.0,63,0.03,,,-99.99,,2013-07-22 00:22:00,
2013-07-21 20:32:00,77.0,64.0,29.93,SE,141,3.0,0.0,65,0.03,,,-99.99,,2013-07-22 00:32:00,
2013-07-21 20:52:00,76.0,65.0,29.94,SE,135,0.0,0.0,68,0.03,,,-99.99,,2013-07-22 00:52:00,
2013-07-21 21:02:00,76.0,65.0,29.94,SE,135,0.0,0.0,68,0.03,,,-99.99,,2013-07-22 01:02:00,
2013-07-21 21:12:00,76.0,65.0,29.94,SE,135,0.0,0.0,68,0.03,,,-99.99,,2013-07-22 01:12:00,
2013-07-21 21:22:00,75.0,65.0,29.93,SE,135,0.0,0.0,72,0.03,,,-99.99,,2013-07-22 01:22:00,
2013-07-21 21:32:00,75.0,65.0,29.93,SE,135,0.0,0.0,72,0.03,,,-99.99,,2013-07-22 01:32:00,
2013-07-21 21:42:00,75.0,65.0,29.93,SE,135,0.0,0.0,72,0.03,,,-99.99,,2013-07-22 01:42:00,
2013-07-21 21:52:00,75.0,66.0,29.93,SE,135,0.0,0.0,73,0.03,,,-99.99,,2013-07-22 01:52:00,
2013-07-21 22:02:00,75.0,67.0,29.93,SE,135,0.0,0.0,75,0.03,,,-99.99,,2013-07-22 02:02:00,
2013-07-21 22:22:00,75.0,67.0,29.94,SE,135,0.0,0.0,75,0.03,,,-99.99,,2013-07-22 02:22:00,
2013-07-21 22:32:00,74.0,66.0,29.95,WSW,256,5.0,0.0,77,0.03,,,-99.99,,2013-07-22 02:32:00,
2013-07-21 22:43:00,74.0,64.0,29.95,WSW,248,7.0,0.0,71,0.03,,,-99.99,,2013-07-22 02:43:00,
2013-07-21 22:52:00,73.0,63.0,29.95,NW,321,7.0,0.0,70,0.03,,,-99.99,,2013-07-22 02:52:00,
2013-07-21 23:01:00,73.0,63.0,29.95,NNW,342,3.0,0.0,71,0.03,,,-99.99,,2013-07-22 03:01:00,
2013-07-21 23:12:00,73.0,63.0,29.95,NNW,342,3.0,0.0,71,0.03,,,-99.99,,2013-07-22 03:12:00,
2013-07-21 23:22:00,72.0,63.0,29.95,NW,307,0.0,0.0,73,0.03,,,-99.99,,2013-07-22 03:22:00,
2013-07-21 23:33:00,72.0,63.0,29.95,NNW,336,3.0,0.0,73,0.03,,,-99.99,,2013-07-22 03:33:00,
2013-07-21 23:43:00,72.0,64.0,29.96,NNW,336,0.0,0.0,75,0.03,,,-99.99,,2013-07-22 03:43:00,
2013-07-21 23:53:00,72.0,64.0,29.97,NNW,336,0.0,0.0,76,0.03,,,-99.99,,2013-07-22 03:53:00,